OPS 4682 DEB

Satellite information

Favourite Embed

Satellite Type and Status

DEBRISIN ORBIT

Key statistics

Satellite OPS 4682 DEB at a glance.

Uptime

22123

Days in orbit

Revolutions

≈ 13.0

Per day

Orbit

SSO

Sun Synchronous Orbit

Inclination

90.2

Latest

Satellite identification and parameters

Extended collection of information and parameters for OPS 4682 DEB.

Object identification

Identified? True

Debris? True

Object name: OPS 4682 DEB

International designator: 1965-027BC

Object number (NORAD): 20048

Object ID (CCSDS): 20048

Country: UNITED STATES OF AMERICA (US)

Current information (Y/N): Y

RCS size: SMALL

Orbital parameters

Period: 110.647 minutes

Inclination: 90.2496 deg

SMA: 7634.619 km

Apoapsis: 1281.604 km

Periapsis: 1231.363 km

RAAN: 348.9759 deg

Eccentricy: 0.00329034

Argument of periapsis: 131.3738 deg

Mean anomaly: 253.9963 deg

Mean motion: 13.01432767 rev/day

Mean motion (dot): 0.0000008 rev/day2

B* drag term: 0.00023383864 1/REarth

Two-line elements (TLE)

Creation date: Oct. 28, 2025, 2:18 a.m.

Reference frame: TEME

Reference center: EARTH

Epoch: Oct. 27, 2025, 9:56 a.m. UTC

TLE line 0: 0 OPS 4682 DEB

TLE line 1: 1 20048U 65027BC 25300.41405506 .00000080 00000-0 23384-3 0 9990

TLE line 2: 2 20048 90.2496 348.9759 0032903 131.3738 253.9963 13.01432767586082

Live tracking on map

Real-time ground track for satellite OPS 4682 DEB.

In-orbit conjunctions

A list of the most updated potential collisions computed for object OPS 4682 DEB.

Target Orbit TCA Probability of collision Miss distance Type
CZ-6A DEB SSO 2024-06-28 01:13:09 0.00014213 138.0 (m) DEBRIS

Associated space launch

Experimental satellite equipped with a nuclear power system and a cesium ion engine.

OPS 4682 DEB was lifted into orbit during the mission ‘Atlas SLV-3 Agena D | SNAPSHOT-1’, on board a Atlas SLV-3 Agena D space rocket.

The launch took place on April 3, 1965, 9:25 p.m. from Space Launch Complex 4E.

For more information about the launch, click the button.

Launch to space Atlas SLV-3 Agena D | SNAPSHOT-1
Atlas SLV-3 Agena D | SNAPSHOT-1

Agency: N/A

Status: Launch Successful

Launch date: April 3, 1965, 9:25 p.m. UTC

Rocket: Atlas SLV-3 Agena D

Launch pad: Space Launch Complex 4E

Location: Vandenberg SFB, CA, USA

...

Latest news about this satellite

There are no fresh news available about this satellite. Check back as we update our databases every day.


Newsletter sign-up

Weekly statistics, charts and insights to help you stay on top of the space industry.